Location: Unspecified
(49.2170°N, 0.0000°E)
Time: 20:24:05
(UTC+00:00)

ISS - Visible Passes

Search period start: 20 May 2019 00:00
Search period end: 30 May 2019 00:00
Orbit: 408 x 410 km, 51.6° (Epoch: 21 May)

Date Brightness Start Highest point End Pass type
(mag) Time Alt. Az. Time Alt. Az. Time Alt. Az.
20 May -3.7 00:50:32 10° WNW 00:53:51 77° NNE 00:57:10 10° ESE visible
20 May -3.0 02:27:18 10° W 02:30:14 29° SW 02:33:09 10° SSE visible
20 May -3.6 20:46:20 10° SW 20:49:32 47° SSE 20:52:44 10° ENE visible
20 May -3.3 22:22:49 10° W 22:26:05 61° N 22:29:23 10° ENE visible
20 May -3.4 23:59:37 10° WNW 00:02:55 62° N 00:04:32 26° E visible
21 May -1.7 01:36:16 10° WNW 01:37:07 16° W 01:37:07 16° W visible
21 May -3.6 21:31:50 10° W 21:35:07 74° NNW 21:38:27 10° ENE visible
21 May -3.1 23:08:39 10° WNW 23:11:55 55° N 23:14:15 17° E visible
22 May -2.3 00:45:18 10° WNW 00:46:56 26° W 00:46:56 26° W visible
22 May -3.9 20:40:53 10° WSW 20:44:11 84° SSE 20:47:31 10° ENE visible
22 May -3.0 22:17:40 10° W 22:20:55 53° N 22:24:11 10° ENE visible
22 May -3.6 23:54:21 10° WNW 23:57:16 66° WNW 23:57:16 66° WNW visible
23 May -3.1 21:26:38 10° W 21:29:54 57° N 21:33:11 10° ENE visible
23 May -3.6 23:03:24 10° WNW 23:06:43 68° NNE 23:07:45 39° E visible
24 May -1.2 00:40:06 10° W 00:40:27 12° W 00:40:27 12° W visible
24 May -3.4 20:35:36 10° W 20:38:54 66° NNW 20:42:12 10° ENE visible
24 May -3.2 22:12:26 10° WNW 22:15:42 58° N 22:18:18 15° E visible
24 May -2.5 23:49:04 10° WNW 23:51:00 31° W 23:51:00 31° W visible
25 May -3.0 21:21:25 10° WNW 21:24:40 53° N 21:27:56 10° E visible
25 May -4.0 22:58:05 10° WNW 23:01:23 80° SSW 23:01:36 74° SSE visible
26 May -3.0 20:30:21 10° W 20:33:37 54° N 20:36:53 10° ENE visible
26 May -3.7 22:07:05 10° WNW 22:10:24 77° NNE 22:12:13 24° E visible
26 May -1.6 23:43:52 10° W 23:44:56 17° W 23:44:56 17° W visible
27 May -3.4 21:16:05 10° WNW 21:19:22 62° N 21:22:40 10° E visible
27 May -3.2 22:52:43 10° WNW 22:55:34 42° SW 22:55:34 42° SW visible
28 May -3.8 22:01:41 10° WNW 22:04:58 67° SSW 22:06:14 34° SE visible
29 May -3.8 21:10:39 10° WNW 21:13:58 88° NNE 21:16:55 13° ESE visible
29 May -2.1 22:47:34 10° W 22:49:38 22° SW 22:49:38 22° SW visible
